| time (UTC) | temp F | wind direction | speed MPH | gust MPH | rain 1hr in | rain 24hr in | rain mn in | humidity % | barometer mb |
| 20260505230005 | 56 | 29 | 5.0 | 7.0 | 0.00 | 0.00 | 0.00 | 88 | 1009.8 |
| 20260505225005 | 56 | 345 | 1.0 | 1.0 | 0.00 | 0.00 | 0.00 | 87 | 1009.8 |
| 20260505224005 | 56 | 22 | 1.0 | 1.0 | 0.00 | 0.00 | 0.00 | 87 | 1009.9 |
| 20260505223005 | 56 | 8 | 0.0 | 0.0 | 0.00 | 0.00 | 0.00 | 87 | 1010.0 |
| 20260505222005 | 56 | 45 | 0.0 | 0.0 | 0.00 | 0.00 | 0.00 | 86 | 1010.0 |
| 20260505221005 | 57 | 49 | 0.0 | 0.0 | 0.00 | 0.00 | 0.00 | 84 | 1010.2 |
| 20260505215005 | 57 | 56 | 0.0 | 3.0 | 0.00 | 0.00 | 0.00 | 83 | 1010.2 |
| 20260505214005 | 57 | 32 | 5.0 | 6.0 | 0.00 | 0.00 | 0.00 | 82 | 1010.2 |
| 20260505213005 | 58 | 357 | 6.0 | 7.0 | 0.00 | 0.00 | 0.00 | 82 | 1010.1 |
| 20260505212005 | 58 | 9 | 6.0 | 8.0 | 0.00 | 0.00 | 0.00 | 82 | 1010.1 |
| 20260505211005 | 58 | 9 | 6.0 | 10.0 | 0.00 | 0.00 | 0.00 | 81 | 1010.3 |
| 20260505210005 | 58 | 0 | 3.0 | 7.0 | 0.00 | 0.00 | 0.00 | 80 | 1010.3 |
| 20260505205005 | 58 | 24 | 0.0 | 8.0 | 0.00 | 0.00 | 0.00 | 79 | 1010.2 |
| 20260505204006 | 58 | 25 | 5.0 | 6.0 | 0.00 | 0.00 | 0.00 | 77 | 1010.2 |
| 20260505203005 | 58 | 42 | 0.0 | 0.0 | 0.00 | 0.00 | 0.00 | 75 | 1010.1 |
| 20260505202005 | 59 | 5 | 3.0 | 8.0 | 0.00 | 0.00 | 0.00 | 73 | 1009.9 |
| 20260505200005 | 59 | 19 | 3.0 | 7.0 | 0.00 | 0.00 | 0.00 | 70 | 1009.7 |
| 20260505195005 | 60 | 20 | 5.0 | 7.0 | 0.00 | 0.00 | 0.00 | 68 | 1009.7 |
| 20260505194005 | 61 | 334 | 7.0 | 12.0 | 0.00 | 0.00 | 0.00 | 66 | 1009.6 |
| 20260505193005 | 62 | 318 | 1.0 | 10.0 | 0.00 | 0.00 | 0.00 | 67 | 1009.4 |
| 20260505192005 | 62 | 100 | 7.0 | 10.0 | 0.00 | 0.00 | 0.00 | 65 | 1009.3 |
| 20260505191005 | 63 | 334 | 8.0 | 12.0 | 0.00 | 0.00 | 0.00 | 62 | 1009.4 |
| 20260505190005 | 64 | 331 | 9.0 | 14.0 | 0.00 | 0.00 | 0.00 | 59 | 1009.2 |
| 20260505185005 | 65 | 18 | 10.0 | 18.0 | 0.00 | 0.00 | 0.00 | 59 | 1009.2 |
| 20260505183006 | 66 | 288 | 8.0 | 13.0 | 0.00 | 0.00 | 0.00 | 56 | 1008.8 |
| 20260505182006 | 66 | 299 | 13.0 | 17.0 | 0.00 | 0.00 | 0.00 | 55 | 1008.8 |
| 20260505181005 | 66 | 276 | 12.0 | 17.0 | 0.00 | 0.00 | 0.00 | 55 | 1008.8 |
| 20260505175005 | 67 | 284 | 13.0 | 17.0 | 0.00 | 0.00 | 0.00 | 53 | 1008.7 |
| 20260505172005 | 68 | 300 | 12.0 | 17.0 | 0.00 | 0.00 | 0.00 | 52 | 1008.6 |
| 20260505171005 | 69 | 319 | 9.0 | 15.0 | 0.00 | 0.00 | 0.00 | 50 | 1008.7 |
| 20260505165005 | 68 | 335 | 8.0 | 15.0 | 0.00 | 0.00 | 0.00 | 52 | 1008.7 |
| 20260505163006 | 68 | 305 | 9.0 | 15.0 | 0.00 | 0.00 | 0.00 | 52 | 1008.5 |
| 20260505162006 | 69 | 297 | 7.0 | 13.0 | 0.00 | 0.00 | 0.00 | 50 | 1008.5 |
| 20260505161006 | 68 | 292 | 7.0 | 10.0 | 0.00 | 0.00 | 0.00 | 53 | 1008.4 |
| 20260505151005 | 68 | 310 | 7.0 | 13.0 | 0.00 | 0.00 | 0.00 | 54 | 1008.9 |
| 20260505124005 | 71 | 349 | 1.0 | 12.0 | 0.00 | 0.00 | 0.00 | 43 | 1009.7 |
| 20260505123005 | 72 | 38 | 1.0 | 13.0 | 0.00 | 0.00 | 0.00 | 44 | 1009.7 |
| 20260505122005 | 71 | 20 | 6.0 | 9.0 | 0.00 | 0.00 | 0.00 | 45 | 1009.9 |
| 20260505121005 | 69 | 314 | 7.0 | 10.0 | 0.00 | 0.00 | 0.00 | 47 | 1010.0 |
| 20260505120005 | 71 | 319 | 3.0 | 12.0 | 0.00 | 0.00 | 0.00 | 42 | 1010.1 |
| 20260505115005 | 73 | 13 | 2.0 | 12.0 | 0.00 | 0.00 | 0.00 | 39 | 1010.1 |
| 20260505114005 | 71 | 15 | 1.0 | 7.0 | 0.00 | 0.00 | 0.00 | 44 | 1010.2 |
| 20260505113005 | 68 | 44 | 1.0 | 13.0 | 0.00 | 0.00 | 0.00 | 50 | 1010.3 |
| 20260505112005 | 68 | 303 | 6.0 | 13.0 | 0.00 | 0.00 | 0.00 | 50 | 1010.4 |
| 20260505111005 | 69 | 24 | 0.0 | 7.0 | 0.00 | 0.00 | 0.00 | 47 | 1010.4 |
| 20260505101005 | 71 | 284 | 0.0 | 0.0 | 0.00 | 0.00 | 0.00 | 49 | 1010.6 |
| 20260505100004 | 69 | 292 | 0.0 | 0.0 | 0.00 | 0.00 | 0.00 | 53 | 1010.5 |
| 20260505095004 | 72 | 264 | 0.0 | 0.0 | 0.00 | 0.00 | 0.00 | 47 | 1010.6 |
| 20260505094005 | 71 | 302 | 0.0 | 0.0 | 0.00 | 0.00 | 0.00 | 49 | 1010.6 |
| 20260505093005 | 67 | 270 | 0.0 | 0.0 | 0.00 | 0.00 | 0.00 | 57 | 1010.7 |
| 20260505092005 | 68 | 330 | 0.0 | 1.0 | 0.00 | 0.00 | 0.00 | 56 | 1010.7 |
| 20260505091005 | 72 | 292 | 0.0 | 0.0 | 0.00 | 0.00 | 0.00 | 49 | 1010.7 |
| 20260505090005 | 71 | 280 | 0.0 | 0.0 | 0.00 | 0.00 | 0.00 | 54 | 1010.7 |
| 20260505083005 | 65 | 241 | 0.0 | 0.0 | 0.00 | 0.00 | 0.00 | 63 | 1010.7 |
| 20260505082004 | 65 | 267 | 0.0 | 0.0 | 0.00 | 0.00 | 0.00 | 64 | 1010.6 |
| 20260505081005 | 64 | 270 | 0.0 | 0.0 | 0.00 | 0.00 | 0.00 | 64 | 1010.6 |
| 20260505075004 | 65 | 256 | 0.0 | 0.0 | 0.00 | 0.00 | 0.00 | 61 | 1010.5 |
| 20260505074004 | 65 | 277 | 0.0 | 0.0 | 0.00 | 0.00 | 0.00 | 62 | 1010.6 |
| 20260505073004 | 64 | 239 | 0.0 | 0.0 | 0.00 | 0.00 | 0.00 | 65 | 1010.5 |
| 20260505072006 | 59 | 194 | 0.0 | 0.0 | 0.00 | 0.00 | 0.00 | 74 | 1010.5 |
| 20260505071005 | 59 | 212 | 0.0 | 0.0 | 0.00 | 0.00 | 0.00 | 75 | 1010.5 |
| 20260505070005 | 58 | 217 | 0.0 | 0.0 | 0.00 | 0.00 | 0.00 | 77 | 1010.4 |
| 20260505065005 | 56 | 203 | 0.0 | 0.0 | 0.00 | 0.00 | 0.00 | 80 | 1010.3 |
| 20260505064005 | 55 | 180 | 0.0 | 0.0 | 0.00 | 0.00 | 0.00 | 82 | 1010.3 |
| 20260505063004 | 52 | 225 | 0.0 | 0.0 | 0.00 | 0.00 | 0.00 | 89 | 1010.2 |
| 20260505062005 | 52 | 158 | 0.0 | 0.0 | 0.00 | 0.00 | 0.00 | 87 | 1010.2 |
| 20260505061004 | 49 | 202 | 0.0 | 0.0 | 0.00 | 0.00 | 0.00 | 96 | 1010.1 |
| 20260505060004 | 49 | 112 | 0.0 | 0.0 | 0.00 | 0.00 | 0.00 | 98 | 1009.9 |
| 20260505055005 | 49 | 158 | 0.0 | 0.0 | 0.00 | 0.00 | 0.00 | 98 | 1009.9 |
| 20260505054005 | 48 | 112 | 0.0 | 0.0 | 0.00 | 0.00 | 0.00 | 99 | 1009.9 |
| 20260505052005 | 48 | 113 | 1.0 | 2.0 | 0.00 | 0.00 | 0.00 | 99 | 1009.7 |
| 20260505041006 | 48 | 176 | 0.0 | 0.0 | 0.00 | 0.00 | 0.00 | 97 | 1010.0 |
| 20260505035005 | 48 | 146 | 0.0 | 0.0 | 0.00 | 0.00 | 0.00 | 98 | 1010.1 |
| 20260505034005 | 48 | 180 | 0.0 | 0.0 | 0.00 | 0.00 | 0.00 | 96 | 1010.1 |
| 20260505033006 | 49 | 122 | 0.0 | 2.0 | 0.00 | 0.00 | 0.00 | 97 | 1010.0 |
| 20260505032005 | 49 | 135 | 0.0 | 0.0 | 0.00 | 0.00 | 0.00 | 97 | 1009.9 |
| 20260505031006 | 49 | 136 | 0.0 | 0.0 | 0.00 | 0.00 | 0.00 | 96 | 1010.0 |
| 20260505030005 | 49 | 123 | 0.0 | 0.0 | 0.00 | 0.00 | 0.00 | 96 | 1010.1 |
| 20260505024006 | 49 | 141 | 0.0 | 0.0 | 0.00 | 0.00 | 0.00 | 94 | 1010.1 |
| 20260505023005 | 50 | 218 | 0.0 | 0.0 | 0.00 | 0.00 | 0.00 | 95 | 1010.1 |
| 20260505022006 | 49 | 229 | 0.0 | 0.0 | 0.00 | 0.00 | 0.00 | 94 | 1010.3 |
| 20260505021005 | 50 | 135 | 0.0 | 0.0 | 0.00 | 0.00 | 0.00 | 93 | 1010.3 |
| 20260505020005 | 51 | 270 | 0.0 | 0.0 | 0.00 | 0.00 | 0.00 | 93 | 1010.3 |
| 20260505014005 | 50 | 193 | 0.0 | 0.0 | 0.00 | 0.00 | 0.00 | 93 | 1010.3 |
| 20260505013006 | 51 | 134 | 0.0 | 0.0 | 0.00 | 0.00 | 0.00 | 93 | 1010.6 |
| 20260505012005 | 52 | 175 | 0.0 | 0.0 | 0.00 | 0.00 | 0.00 | 91 | 1010.7 |
| 20260505011006 | 51 | 143 | 0.0 | 0.0 | 0.00 | 0.00 | 0.00 | 90 | 1010.6 |
| 20260505005006 | 52 | 87 | 0.0 | 0.0 | 0.00 | 0.00 | 0.00 | 90 | 1010.9 |
| 20260505004005 | 52 | 135 | 0.0 | 0.0 | 0.00 | 0.00 | 0.00 | 90 | 1011.0 |
| 20260505003005 | 52 | 173 | 0.0 | 0.0 | 0.00 | 0.00 | 0.00 | 91 | 1010.9 |
| 20260505002005 | 52 | 120 | 0.0 | 0.0 | 0.00 | 0.00 | 0.00 | 89 | 1010.9 |
| 20260505001005 | 53 | 117 | 0.0 | 0.0 | 0.00 | 0.00 | 0.00 | 87 | 1011.3 |
| 20260504233005 | 54 | 208 | 0.0 | 0.0 | 0.00 | 0.00 | 0.00 | 86 | 1011.4 |
| 20260504232005 | 54 | 193 | 0.0 | 0.0 | 0.00 | 0.00 | 0.00 | 86 | 1011.3 |
| 20260504231005 | 54 | 180 | 0.0 | 0.0 | 0.00 | 0.00 | 0.00 | 86 | 1011.1 |